GLOBALSTAR M042 [-]

Last updated on Fri Dec 29 2023 00:02:56 GMT+0000 (Coordinated Universal Time)

1 25679U 99019D 23361.55167545 -.00000104 00000+0 -11044-3 0 9999 2 25679 52.0003 128.6710 0002121 261.9710 223.5330 12.22053795119597
UTC large
Height (km)
Speed (km/s)
/
Latitude / Longitude
Inclination (degrees)
Orbital Period (minutes)
Azimuth
Elevation
Range (km)
Doppler Factor

Next 0 passes for location: London (51.5072 / 0.1276)

Sorry there are no passes over London.